FW4623 Weather Reports


Display with metric or nautical units.
time (UTC)temp
F
wind
direction
speed
MPH
gust
MPH
rain 1hr
in
rain 24hr
in
rain mn
in
humidity
%
barometer
mb
20260503055022 71 270 1.0 2.0 0.00 0.32 0.00 92 1014.1
20260503054524 71 160 0.0 1.0 0.00 0.32 0.00 92 1014.0
20260503054021 71 159 0.0 0.0 0.00 0.32 0.00 92 1013.9
20260503053520 71 159 0.0 0.0 0.00 0.32 0.00 92 1014.0
20260503053031 71 159 0.0 0.0 0.00 0.32 0.00 92 1014.2
20260503052530 71 159 0.0 0.0 0.00 0.32 0.00 92 1014.3
20260503052018 71 159 0.0 0.0 0.00 0.32 0.00 92 1014.2
20260503051517 71 159 0.0 0.0 0.00 0.32 0.00 92 1014.2
20260503051018 71 159 0.0 0.0 0.00 0.32 0.00 92 1014.2
20260503050516 71 159 0.0 0.0 0.00 0.32 0.00 92 1014.2
20260503050016 71 159 0.0 0.0 0.00 0.32 0.00 92 1014.3
20260503045517 71 159 0.0 0.0 0.00 0.32 0.00 92 1014.4
20260503045016 71 159 0.0 0.0 0.00 0.32 0.00 92 1014.5
20260503044531 71 159 0.0 1.0 0.00 0.32 0.00 92 1014.5
20260503044014 71 159 0.0 1.0 0.00 0.32 0.00 92 1014.4
20260503043515 71 159 0.0 3.0 0.00 0.32 0.00 92 1014.1
20260503043014 71 159 0.0 3.0 0.00 0.32 0.00 92 1014.2
20260503042513 71 145 1.0 3.0 0.00 0.32 0.00 92 1014.4
20260503042012 71 145 0.0 2.0 0.00 0.32 0.00 92 1014.2
20260503041510 71 144 0.0 0.0 0.00 0.32 0.00 92 1014.3
20260503041008 71 144 0.0 0.0 0.00 0.32 0.00 92 1014.3
20260503040513 71 144 0.0 0.0 0.00 0.32 0.00 91 1014.3
20260503040011 70 144 0.0 0.0 0.00 0.32 0.32 91 1014.4
20260503035506 71 144 0.0 0.0 0.00 0.32 0.32 91 1014.1
20260503035005 70 144 0.0 0.0 0.00 0.32 0.32 91 1014.1
20260503034504 70 144 0.0 0.0 0.00 0.32 0.32 91 1013.9
20260503034002 70 144 0.0 0.0 0.00 0.32 0.32 91 1013.6
20260503033503 70 144 0.0 0.0 0.00 0.32 0.32 91 1013.5
20260503033003 70 144 0.0 0.0 0.00 0.32 0.32 91 1013.5
20260503032503 71 144 0.0 1.0 0.00 0.32 0.32 91 1013.4
20260503032005 71 144 0.0 2.0 0.00 0.32 0.32 91 1013.5
20260503031503 71 144 0.0 1.0 0.00 0.32 0.32 92 1013.4
20260503031002 71 144 0.0 0.0 0.00 0.32 0.32 91 1013.3
20260503030503 71 144 0.0 0.0 0.00 0.32 0.32 91 1013.2
20260503030003 71 144 0.0 1.0 0.00 0.32 0.32 91 1013.1
20260503025502 71 144 0.0 1.0 0.00 0.32 0.32 91 1013.1
20260503025002 71 144 0.0 2.0 0.00 0.32 0.32 91 1013.0
20260503024501 71 144 0.0 2.0 0.00 0.32 0.32 91 1012.9
20260503024002 71 144 0.0 2.0 0.00 0.32 0.32 91 1013.2
20260503023501 71 144 0.0 1.0 0.00 0.32 0.32 91 1013.6
20260503023001 71 144 0.0 0.0 0.00 0.32 0.32 91 1013.5
20260503022501 71 144 0.0 0.0 0.00 0.32 0.32 91 1013.2
20260503022100 71 144 0.0 1.0 0.00 0.32 0.32 91 1012.8
20260503022001 71 144 0.0 1.0 0.00 0.32 0.32 92 1012.9
20260503021603 71 144 0.0 1.0 0.00 0.32 0.32 92 1012.8
20260503021059 71 144 0.0 0.0 0.00 0.32 0.32 92 1012.9
20260503020600 71 144 0.0 0.0 0.00 0.32 0.32 91 1013.2
20260503020114 71 144 0.0 3.0 0.00 0.32 0.32 91 1013.2
20260503015559 71 144 0.0 3.0 0.00 0.32 0.32 92 1013.1
20260503015058 71 144 0.0 2.0 0.01 0.32 0.32 92 1013.3
20260503014615 71 144 0.0 2.0 0.01 0.32 0.32 92 1013.2
20260503014058 71 144 0.0 2.0 0.01 0.32 0.32 92 1013.2
20260503013559 71 144 0.0 2.0 0.01 0.32 0.32 92 1013.2
20260503013116 71 144 0.0 2.0 0.01 0.32 0.32 92 1013.3
20260503012600 71 144 0.0 1.0 0.01 0.32 0.32 92 1013.0
20260503012056 71 144 0.0 3.0 0.01 0.32 0.32 92 1013.0
20260503011556 71 144 0.0 3.0 0.01 0.32 0.32 92 1012.5
20260503011056 71 136 1.0 3.0 0.01 0.32 0.32 91 1011.8
20260503010554 71 138 0.0 2.0 0.01 0.32 0.32 91 1011.5
20260503010055 71 138 0.0 3.0 0.01 0.32 0.32 91 1011.9
20260503005556 71 138 1.0 3.0 0.01 0.32 0.32 91 1011.7
20260503005055 71 144 0.0 0.0 0.00 0.31 0.31 91 1011.9
20260503004603 71 144 0.0 0.0 0.00 0.31 0.31 91 1012.2
20260503004053 71 144 0.0 0.0 0.00 0.31 0.31 91 1012.3
20260503003554 71 144 0.0 0.0 0.00 0.31 0.31 91 1012.3
20260503003054 71 144 0.0 0.0 0.00 0.31 0.31 91 1011.7
20260503002557 71 144 0.0 0.0 0.00 0.31 0.31 91 1011.7
20260503002053 71 144 0.0 0.0 0.00 0.31 0.31 91 1011.8
20260503001556 71 144 0.0 2.0 0.01 0.31 0.31 91 1011.5
20260503001055 71 144 0.0 3.0 0.01 0.31 0.31 91 1011.6
20260503000553 71 144 0.0 3.0 0.01 0.31 0.31 91 1011.7
20260502235552 71 200 0.0 4.0 0.02 0.31 0.31 91 1012.1
20260502235053 71 219 1.0 9.0 0.02 0.31 0.31 91 1011.7
20260502234603 72 176 4.0 9.0 0.02 0.31 0.31 91 1010.9
20260502234053 72 144 3.0 8.0 0.02 0.31 0.31 91 1010.9
20260502233553 72 163 1.0 3.0 0.02 0.31 0.31 91 1011.3
20260502233052 72 134 0.0 2.0 0.02 0.31 0.31 91 1011.5
20260502232552 72 140 0.0 3.0 0.02 0.31 0.31 91 1011.7
20260502232051 72 133 0.0 3.0 0.03 0.31 0.31 91 1011.4
20260502231552 73 124 0.0 3.0 0.03 0.30 0.30 90 1011.4
20260502231051 73 130 0.0 2.0 0.04 0.30 0.30 90 1011.8
20260502230551 73 130 1.0 2.0 0.04 0.28 0.28 90 1011.9
20260502230052 73 116 0.0 3.0 0.05 0.28 0.28 90 1011.8
20260502225553 73 114 0.0 2.0 0.06 0.28 0.28 90 1011.4
20260502225050 73 114 0.0 0.0 0.07 0.28 0.28 90 1011.2
20260502224551 73 114 0.0 1.0 0.07 0.28 0.28 90 1011.5
20260502224052 73 114 0.0 3.0 0.08 0.28 0.28 90 1011.4
20260502223555 73 114 0.0 3.0 0.08 0.28 0.28 90 1011.8
20260502223101 73 171 0.0 3.0 0.08 0.28 0.28 90 1011.8
20260502222550 73 111 1.0 2.0 0.08 0.28 0.28 90 1011.3
20260502222050 73 111 0.0 2.0 0.07 0.28 0.28 90 1011.2
20260502221552 73 111 0.0 4.0 0.07 0.27 0.27 89 1011.4
20260502221049 73 111 1.0 4.0 0.08 0.26 0.26 89 1011.7
20260502220549 73 126 1.0 3.0 0.10 0.25 0.25 89 1011.6
20260502220056 73 188 0.0 4.0 0.09 0.24 0.24 89 1011.7
20260502215549 73 146 0.0 2.0 0.11 0.23 0.23 88 1011.6
20260502215048 74 123 0.0 2.0 0.15 0.22 0.22 88 1011.4
20260502214609 74 123 0.0 2.0 0.16 0.22 0.22 87 1011.7
20260502214049 74 123 0.0 2.0 0.16 0.21 0.21 87 1011.5
20260502213552 74 123 0.0 2.0 0.17 0.21 0.21 87 1011.4
20260502213106 74 123 0.0 1.0 0.21 0.21 0.21 86 1011.4
20260502212548 74 123 0.0 2.0 0.21 0.21 0.21 85 1011.5
20260502212049 74 123 0.0 3.0 0.21 0.21 0.21 85 1011.5
20260502211553 75 123 0.0 3.0 0.20 0.20 0.20 85 1011.3
20260502211048 75 92 0.0 4.0 0.17 0.17 0.17 84 1011.2
20260502210547 75 74 1.0 4.0 0.15 0.15 0.15 83 1011.2
20260502210049 76 238 0.0 3.0 0.15 0.15 0.15 82 1011.8
20260502205551 76 344 0.0 3.0 0.11 0.11 0.11 81 1011.5
20260502205047 77 336 1.0 3.0 0.07 0.07 0.07 80 1011.4
20260502204547 79 341 1.0 5.0 0.06 0.06 0.06 80 1011.1
20260502204049 80 338 1.0 5.0 0.05 0.05 0.05 79 1011.1
20260502203547 81 288 1.0 6.0 0.04 0.04 0.04 78 1010.9
20260502203108 81 344 2.0 7.0 0.00 0.00 0.00 81 1010.9
20260502202551 82 209 2.0 9.0 0.00 0.00 0.00 81 1010.4
20260502202046 82 246 3.0 7.0 0.00 0.00 0.00 81 1010.4
20260502201546 82 228 2.0 7.0 0.00 0.00 0.00 81 1010.7
20260502201050 82 300 3.0 9.0 0.00 0.00 0.00 80 1010.6
20260502200546 82 217 3.0 9.0 0.00 0.00 0.00 80 1010.8
20260502200054 82 211 2.0 7.0 0.00 0.00 0.00 81 1010.6
20260502195545 82 271 3.0 9.0 0.00 0.00 0.00 81 1010.7
20260502195045 82 234 2.0 5.0 0.00 0.00 0.00 81 1010.5
20260502194545 82 226 3.0 7.0 0.00 0.00 0.00 80 1010.8
20260502194045 82 318 2.0 8.0 0.00 0.00 0.00 79 1011.0
20260502193545 83 247 4.0 8.0 0.00 0.00 0.00 79 1011.0
20260502193047 83 325 2.0 8.0 0.00 0.00 0.00 79 1011.1
20260502192544 83 38 3.0 10.0 0.00 0.00 0.00 78 1011.3
20260502192044 83 259 3.0 10.0 0.00 0.00 0.00 78 1011.2
20260502191548 84 305 2.0 11.0 0.00 0.00 0.00 78 1011.2
20260502191044 84 193 2.0 11.0 0.00 0.00 0.00 77 1011.3
20260502190546 84 259 5.0 11.0 0.00 0.00 0.00 76 1011.3
20260502190044 84 223 1.0 8.0 0.00 0.00 0.00 77 1011.3
20260502185543 84 213 2.0 11.0 0.00 0.00 0.00 77 1011.3
20260502185048 84 231 3.0 11.0 0.00 0.00 0.00 76 1011.2
20260502184543 84 233 4.0 10.0 0.00 0.00 0.00 75 1011.4
20260502184044 84 242 2.0 10.0 0.00 0.00 0.00 75 1011.3
20260502183543 85 307 2.0 9.0 0.00 0.00 0.00 76 1011.4
20260502183044 85 217 2.0 11.0 0.00 0.00 0.00 75 1011.5
20260502182545 85 247 3.0 11.0 0.00 0.00 0.00 75 1011.5
20260502182044 85 221 4.0 9.0 0.00 0.00 0.00 76 1011.4
20260502181544 85 265 3.0 10.0 0.00 0.00 0.00 76 1011.5
20260502181041 85 221 3.0 11.0 0.00 0.00 0.00 76 1011.6
20260502180541 85 264 4.0 11.0 0.00 0.00 0.00 77 1011.8
20260502164041 84 223 5.0 11.0 0.00 0.00 0.00 79 1012.2
20260502163539 84 226 4.0 11.0 0.00 0.00 0.00 78 1012.2
20260502163047 84 244 4.0 11.0 0.00 0.00 0.00 78 1012.2
20260502162538 84 180 4.0 10.0 0.00 0.00 0.00 78 1012.3
20260502162040 85 242 4.0 10.0 0.00 0.00 0.00 78 1012.3
20260502161554 85 219 4.0 10.0 0.00 0.00 0.00 78 1012.2
20260502161037 85 300 4.0 10.0 0.00 0.00 0.00 77 1012.3
20260502160537 85 276 4.0 11.0 0.00 0.00 0.00 77 1012.3
20260502152034 84 205 4.0 11.0 0.00 0.00 0.00 78 1011.7
20260502151531 84 248 4.0 11.0 0.00 0.00 0.00 78 1011.8
20260502151031 84 259 4.0 11.0 0.00 0.00 0.00 78 1011.8
20260502150530 84 137 2.0 7.0 0.00 0.00 0.00 80 1011.7
20260502130602 74 279 1.0 4.0 0.00 0.00 0.00 95 1010.7
20260502130107 73 246 2.0 5.0 0.00 0.00 0.00 95 1010.7
20260502123557 70 121 0.0 4.0 0.00 0.00 0.00 93 1010.7
20260502123112 70 132 2.0 4.0 0.00 0.00 0.00 93 1010.7
20260502122551 69 140 1.0 3.0 0.00 0.00 0.00 93 1010.7
20260502122054 69 138 0.0 2.0 0.00 0.00 0.00 93 1010.6
20260502121555 69 138 0.0 3.0 0.00 0.00 0.00 92 1010.5
20260502121048 68 138 1.0 3.0 0.00 0.00 0.00 92 1010.7
20260502120548 68 138 0.0 3.0 0.00 0.00 0.00 92 1010.5
20260502115546 68 138 0.0 3.0 0.00 0.00 0.00 92 1010.5
20260502115045 68 138 0.0 3.0 0.00 0.00 0.00 92 1010.5
20260502114546 68 129 1.0 3.0 0.00 0.00 0.00 92 1010.5
20260502114047 68 130 1.0 4.0 0.00 0.00 0.00 92 1010.4
20260502113544 68 116 1.0 4.0 0.00 0.00 0.00 91 1010.4
20260502113049 67 127 2.0 4.0 0.00 0.00 0.00 91 1010.5
20260502112543 67 118 1.0 3.0 0.00 0.00 0.00 91 1010.4
20260502112042 67 163 1.0 3.0 0.00 0.00 0.00 91 1010.4
20260502111544 67 130 0.0 4.0 0.00 0.00 0.00 91 1010.3
20260502111041 67 131 2.0 5.0 0.00 0.00 0.00 91 1010.2
20260502110540 67 108 1.0 3.0 0.00 0.00 0.00 91 1010.2
20260502110042 67 130 2.0 6.0 0.00 0.00 0.00 91 1010.0
20260502105540 68 160 2.0 6.0 0.00 0.00 0.00 91 1010.0
20260502105038 68 134 2.0 5.0 0.00 0.00 0.00 91 1010.1
20260502104539 68 154 1.0 5.0 0.00 0.00 0.00 91 1010.1
20260502104039 68 160 2.0 5.0 0.00 0.00 0.00 91 1010.2
20260502103538 68 130 2.0 4.0 0.00 0.00 0.00 91 1010.1
20260502103042 68 122 2.0 5.0 0.00 0.00 0.00 91 1010.1
20260502102538 68 144 2.0 5.0 0.00 0.00 0.00 91 1010.2
20260502102036 68 126 1.0 3.0 0.00 0.00 0.00 91 1010.3
20260502101540 68 119 2.0 4.0 0.00 0.00 0.00 91 1010.3
20260502101035 68 138 1.0 4.0 0.00 0.00 0.00 91 1010.4
20260502100535 68 135 1.0 4.0 0.00 0.00 0.00 91 1010.4
20260502091531 68 232 0.0 2.0 0.00 0.00 0.00 89 1010.6
20260502091030 68 232 0.0 1.0 0.00 0.00 0.00 89 1010.5
20260502090529 68 232 0.0 0.0 0.00 0.00 0.00 89 1010.6
20260502090130 69 232 0.0 0.0 0.00 0.00 0.00 89 1010.6
20260502071522 69 232 0.0 0.0 0.00 0.00 0.00 88 1011.1
20260502071023 69 232 0.0 0.0 0.00 0.00 0.00 88 1011.1
20260502070522 69 232 0.0 0.0 0.00 0.00 0.00 88 1011.0
20260502070022 69 232 0.0 0.0 0.00 0.00 0.00 88 1010.9
20260502065522 70 232 0.0 0.0 0.00 0.00 0.00 88 1011.0
20260502065020 70 232 0.0 0.0 0.00 0.00 0.00 88 1011.0
20260502064521 70 232 0.0 0.0 0.00 0.00 0.00 88 1011.0
20260502064021 70 232 0.0 0.0 0.00 0.00 0.00 88 1011.0
20260502063520 70 232 0.0 0.0 0.00 0.00 0.00 88 1011.1